Regional Weather Roundup
Issued by NWS Sioux Falls, SD

Home | Current Version | Previous Version | Text Only | Print | Product List | Glossary On
Versions: 1 2 3 4 5 6 7 8 9 10 11 12 13 14 15 16 17 18 19 20 21 22 23 24 25 26 27 28 29 30 31 32 33 34 35 36 37 38 39 40 41 42 43 44 45 46 47 48 49 50
000
ASUS43 KFSD 230810
RWRFSD

WEATHER ROUNDUP FOR SE SOUTH DAKOTA/SW MINNESOTA/NW IOWA
NATIONAL WEATHER SERVICE SIOUX FALLS SD
300 AM CDT TUE MAY 23 2017

NOTE: "FAIR" INDICATES FEW OR NO CLOUDS BELOW 12,000 FEET WITH NO
SIGNIFICANT WEATHER AND OR OBSTRUCTIONS TO VISIBILITY.


SDZ038>040-050-052>070-230900-
SOUTHEAST SOUTH DAKOTA

CITY           SKY/WX    TMP DP  RH WIND       PRES   REMARKS
BROOKINGS      CLOUDY    46  45  93 NW14      29.88F
CHAMBERLAIN    CLOUDY    50  46  87 W3        29.97F
HURON          LGT RAIN  47  45  93 NW10      29.94F
MADISON        CLOUDY    45  45 100 NW14      29.90F
MITCHELL       CLOUDY    48  45  89 W7        29.94F
SIOUX FALLS    MOCLDY    48  44  86 NW9       29.90F
WINNER         CLOUDY    51  44  77 W9        29.98F
YANKTON        CLEAR     46  43  89 NW9       29.94
$$

MNZ071-072-080-081-089-090-097-098-230900-
SOUTHWEST MINNESOTA

CITY           SKY/WX    TMP DP  RH WIND       PRES   REMARKS
FAIRMONT       CLOUDY    50  47  89 NW8       29.84F
JACKSON        CLOUDY    48  45  87 CALM      29.85F
LUVERNE        PTCLDY    46  41  81 NW8       29.89F
MARSHALL       LGT RAIN  47  45  93 NW8       29.87F
MONTEVIDEO     LGT RAIN  48  45  87 N7        29.86F
PIPESTONE      CLOUDY    46  41  81 NW7       29.87F
REDWOOD FALLS  CLOUDY    48  42  80 NW8       29.84F
TRACY          DRIZZLE   48  46  91 NW12      29.87S
WINDOM         MOCLDY    48  45  87 NW9       29.85F
WORTHINGTON    LGT RAIN  48  44  86 NW13      29.87F
$$

IAZ001>003-012>014-020>022-031-032-NEZ013-014-SDZ071-230900-
NORTHWEST IOWA

CITY           SKY/WX    TMP DP  RH WIND       PRES   REMARKS
CHEROKEE       CLOUDY    48  47  96 W5        29.88F
DENISON        PTCLDY    46  45  93 NW6       29.90F
ESTHERVILLE    CLOUDY    49  49 100 NW10      29.84F
LE MARS        PTCLDY    48  45  87 NW8       29.91S
ORANGE CITY    PTCLDY    46  45  93 NW7       29.89F
SHELDON        MOCLDY    48  45  87 NW12        N/A
SIOUX CITY     PTCLDY    48  45  89 W9        29.92S
SPENCER        CLOUDY    49  47  93 W9        29.86F
STORM LAKE     PTCLDY    48  45  87 NW9       29.87F
$$

ABBREVIATIONS USED IN REMARKS
   TC - TEMPERATURE IN CELSIUS
  WCI - WIND CHILL INDEX
   HX - HEAT INDEX
  VSB - VISIBILITY





USA.gov is the U.S. government's official web portal to all federal, state and local government web resources and services.